Weather at Waterkloof Air Force Base

Public forecast

Using degrees Celsius for public forecast. Weather courtesy of forecast.io.

Current aviation weather report (METAR) for Waterkloof Air Force Base

Report is more than 6 hours old.

Retrieved 2021/10/19 22:00 UTC (1 month ago):

FAWK 192200Z AUTO 03007KT //// // ////// 10/07 Q1029

Aviation forecast (TAF) for Waterkloof Air Force Base

Forecast is more than 12 hours old.

Retrieved 2019/01/10 07:00 UTC (3 years ago):

TAF FAWK 100800Z 1007/1018 33007KT 9999 SCT035 PROB30 TEMPO 1007/1009 -TSRA FEW035CB BECMG 1010/1012 CAVOK PROB30 TEMPO 1016/1018 VRB03KT SCT030 FEW035TCU TX30/1013Z TN25/1018Z